{"data":{"norad_id":49284,"epoch":"2026-05-24T22:08:36.027744Z","epoch_age_seconds":84893,"freshness":"FRESH","line1":"1 49284U 21090F   26144.92263921 -.00000049  00000+0 -15246-3 0  9995","line2":"2 49284  87.9177 279.0763 0002051 101.9246 258.2117 13.20769257227484","mean_motion":13.20769257,"eccentricity":0.0002051,"inclination_deg":87.9177,"raan_deg":279.0763,"arg_perigee_deg":101.9246,"mean_anomaly_deg":258.2117,"bstar":-0.00015246,"rev_number":22748,"period_min":109.02737116026,"perigee_km":1180.2325863302,"apogee_km":1183.3336655658,"semimajor_km":7559.920125948,"source":"CELESTRAK","updated_at":"2026-05-25T13:38:22.520106Z"}}